Weather History for Batman, Turkey

Change the Weather History Date:

Wednesday, July 17, 2013

  Actual Average (LTCC) Record (LTCC)
Temperature  
Mean Temperature 86 °F -  
Max Temperature 105 °F 100 °F 109 °F (1998)
Min Temperature 68 °F 72 °F 66 °F (1997)
Cooling Degree Days 22    
Growing Degree Days 36 (Base 50)    
Moisture  
Dew Point 45 °F    
Average Humidity 26    
Maximum Humidity 64    
Minimum Humidity 5    
Precipitation  
Precipitation 0.00 in - - ()
Sea Level Pressure  
Sea Level Pressure 29.61 in    
Wind  
Wind Speed 7 mph ()    
Max Wind Speed 20 mph    
Max Gust Speed -    
Visibility 12.0 miles    
Events      
Averages and records for this station are not official NWS values.
T = Trace of Precipitation, MM = Missing Value Source: Averaged Metar Reports

Daily Weather History Graph

Daily Weather History Graph

Search for Another Location

Airport:

Trip Planner

Search our weather history database for the weather conditions in past years. The results will help you decide how hot, cold, wet, or windy it might be!

Date:

Astronomy

Jul. 17, 2013 Rise Set
Actual Time 5:06 AM EEST 7:36 PM EEST
Civil Twilight 4:36 AM EEST 8:06 PM EEST
Nautical Twilight 3:58 AM EEST 8:44 PM EEST
Astronomical Twilight 3:16 AM EEST 9:25 PM EEST
Moon 2:02 PM EEST (7/17) No Moon Set
Length of Visible Light 15h 30m
Length of Day
14h 29m
Waxing Gibbous, 64% of the Moon is Illuminated
Jul 17
Waxing Gibbous
Jul 22
Full
Jul 29
Last Quarter
Aug 7
New
Aug 14
First Quarter

Hourly Weather History & Observations

Time (EEST) Temp. Heat Index Dew Point Humidity Pressure Visibility Wind Dir Wind Speed Gust Speed Precip Events Conditions
12:00 AM 86 °F - 35 °F 9% 29.49 in 12 mi SE 6.7 mph - -  
12:20 AM 71.6 °F - 55.4 °F 57% 29.65 in - NNE 8.1 mph - N/A   Clear
12:50 AM 73.4 °F - 50.0 °F 44% 29.65 in - NNE 5.8 mph - N/A   Clear
1:20 AM 73.4 °F - 48.2 °F 41% 29.65 in - NE 10.4 mph - N/A   Clear
1:50 AM 71.6 °F - 50.0 °F 46% 29.65 in - NE 9.2 mph - N/A   Clear
2:20 AM 71.6 °F - 48.2 °F 43% 29.65 in - NE 8.1 mph - N/A   Clear
2:50 AM 69.8 °F - 48.2 °F 46% 29.65 in - NE 6.9 mph - N/A   Clear
3:00 AM 75 °F - 36 °F 14% 29.50 in 12 mi ESE 3.5 mph - -  
3:20 AM 69.8 °F - 50.0 °F 49% 29.65 in - NE 4.6 mph - N/A   Clear
3:50 AM 68.0 °F - 53.6 °F 60% 29.65 in - NNE 6.9 mph - N/A   Clear
4:20 AM 66.2 °F - 53.6 °F 64% 29.65 in - NNE 8.1 mph - N/A   Clear
4:50 AM 66.2 °F - 53.6 °F 64% 29.68 in - NNE 6.9 mph - N/A   Clear
5:20 AM 66.2 °F - 53.6 °F 64% 29.68 in - NE 6.9 mph - N/A   Clear
5:50 AM 69.8 °F - 50.0 °F 49% 29.68 in - NE 6.9 mph - N/A   Clear
6:00 AM 70 °F - 36 °F 19% 29.54 in 12 mi SSE 3.5 mph - -  
6:20 AM 73.4 °F - 46.4 °F 38% 29.68 in - NE 6.9 mph - N/A   Clear
6:50 AM 77.0 °F - 46.4 °F 34% 29.68 in - NNE 6.9 mph - N/A   Clear
7:20 AM 80.6 °F - 46.4 °F 30% 29.68 in - NNE 6.9 mph - N/A   Clear
7:50 AM 84.2 °F - 51.8 °F 33% 29.68 in - NNE 6.9 mph - N/A   Clear
8:20 AM 87.8 °F - 50.0 °F 27% 29.68 in - NNE 6.9 mph - N/A   Clear
8:50 AM 91.4 °F 89.4 °F 55.4 °F 29% 29.68 in - North 5.8 mph - N/A   Clear
9:00 AM 92 °F - 45 °F 11% 29.52 in 12 mi NW 6.7 mph - -  
9:20 AM 93.2 °F - 46.4 °F 20% 29.65 in - North 6.9 mph - N/A   Clear
9:50 AM 93.2 °F 90.8 °F 53.6 °F 26% 29.65 in - NW 8.1 mph - N/A   Clear
10:00 AM 96 °F - 48 °F 12% 29.51 in 12 mi West 11.2 mph - -  
10:20 AM 96.8 °F - 50.0 °F 20% 29.65 in - NNW 6.9 mph - N/A   Clear
10:50 AM 98.6 °F - 41.0 °F 14% 29.65 in - NW 6.9 mph - N/A   Clear
11:00 AM 100 °F - 40 °F 6% 29.50 in 12 mi SSE 6.7 mph - -  
11:20 AM 100.4 °F - 42.8 °F 14% 29.65 in - West 6.9 mph - N/A   Clear
11:50 AM 100.4 °F - 37.4 °F 11% 29.65 in - SW 5.8 mph - N/A   Clear
12:00 PM 102 °F - 38 °F 5% 29.49 in 12 mi West 6.7 mph - -  
12:20 PM 102.2 °F - 41.0 °F 12% 29.65 in - SW 5.8 mph - N/A   Clear
12:50 PM 104.0 °F - 37.4 °F 10% 29.62 in - West 5.8 mph - N/A   Clear
1:00 PM 102 °F - 37 °F 5% 29.48 in 12 mi South 13.4 mph - -  
1:20 PM 104.0 °F - 37.4 °F 10% 29.62 in - WSW 6.9 mph - N/A   Clear
1:50 PM 104.0 °F - 37.4 °F 10% 29.62 in - SW 9.2 mph - N/A   Clear
2:00 PM 105 °F - 37 °F 5% 29.47 in 12 mi West 15.7 mph - -  
2:20 PM 102.2 °F - 41.0 °F 12% 29.62 in - West 11.5 mph - N/A   Clear
2:50 PM 102.2 °F - 39.2 °F 11% 29.62 in - West 12.7 mph - N/A   Clear
3:00 PM 104 °F - 36 °F 5% 29.47 in 12 mi South 15.7 mph - -  
3:20 PM 102.2 °F - 41.0 °F 12% 29.59 in - West 12.7 mph - N/A   Clear
3:50 PM 102.2 °F - 39.2 °F 11% 29.59 in - WSW 13.8 mph - N/A   Clear
4:00 PM 103 °F - 37 °F 5% 29.47 in 12 mi South 15.7 mph - -  
4:20 PM 102.2 °F - 39.2 °F 11% 29.59 in - WSW 12.7 mph - N/A   Clear
4:50 PM 100.4 °F - 42.8 °F 14% 29.59 in - WSW 11.5 mph - N/A   Clear
5:00 PM 101 °F - 39 °F 6% 29.46 in 12 mi South 20.1 mph - -  
5:20 PM 100.4 °F - 42.8 °F 14% 29.59 in - WSW 11.5 mph - N/A   Clear
5:50 PM 100.4 °F - 42.8 °F 14% 29.59 in - WSW 11.5 mph - N/A   Clear
6:00 PM 100 °F - 41 °F 7% 29.47 in 12 mi SSW 5.8 mph - -  
6:20 PM 96.8 °F - 48.2 °F 19% 29.59 in - WSW 8.1 mph - N/A   Clear
6:50 PM 95.0 °F - 48.2 °F 20% 29.62 in - WSW 8.1 mph - N/A   Clear
7:20 PM 91.4 °F - 50.0 °F 24% 29.62 in - WSW 6.9 mph - N/A   Clear
7:50 PM 87.8 °F - 48.2 °F 25% 29.62 in - SW 6.9 mph - N/A   Clear
8:20 PM 84.2 °F - 51.8 °F 33% 29.65 in - SSW 4.6 mph - N/A   Clear
8:50 PM 84.2 °F - 50.0 °F 30% 29.65 in - SSW 3.5 mph - N/A   Clear
9:20 PM 82.4 °F - 46.4 °F 28% 29.65 in - Calm Calm - N/A   Clear
9:50 PM 80.6 °F - 46.4 °F 30% 29.65 in - NW 1.2 mph - N/A   Clear
10:20 PM 78.8 °F - 46.4 °F 32% 29.65 in - NNE 3.5 mph - N/A   Clear
10:50 PM 77.0 °F - 46.4 °F 34% 29.65 in - NNE 3.5 mph - N/A   Clear
11:20 PM 71.6 °F - 57.2 °F 60% 29.65 in - NNE 6.9 mph - N/A   Clear
11:50 PM 73.4 °F - 55.4 °F 53% 29.65 in - NE 6.9 mph - N/A   Clear